Location: Gerlach
(40.6516°N, 119.3568°W)
Time: 15:03:38
(UTC-07:00)

A-11 Canister half - Pass Details

Date: 20 February 2024
Orbit: 1525 x 1683 km, 47.3° (Epoch: 21 April)

Event Time Altitude Azimuth Distance (km) Brightness Sun altitude
Exits shadow 04:43:51 37° 276° (W) 2,212 9.3 -23.7°
Maximum altitude 04:47:30 56° 220° (SW) 1,780 9.0 -23.0°
Drops below altitude 10° 04:56:40 10° 145° (SE) 3,759 11.4 -21.2°
Sets 04:59:50 0° 141° (SE) 4,762 12.1 -20.6°
